User: anonymous   Login
Location: Kuffner-Sternwarte
(48.2130°N, 16.2960°E)
Time: 04:29:59
(UTC+02:00)
Language:

COROT - Orbit

View from above orbital plane
View from above orbital plane
View from above satellite
View from above satellite

Ground track
Ground track

The orbit data is extracted from the following two-line orbital elements,

1 29678U 06063A   17205.52426454 +.00000059 +00000-0 +10426-4 0  9995
2 29678 090.0299 015.3333 0201461 348.4273 011.2332 14.44070362545452
Epoch (UTC): 24 July 2017 12:34:56
Eccentricity: 0.0201461
inclination: 90.0299°
perigee height: 601 km
apogee height: 888 km
right ascension of ascending node: 15.3333°
argument of perigee: 348.4273°
revolutions per day: 14.44070362
mean anomaly at epoch: 11.2332°
orbit number at epoch: 54545

The dashed part of the orbit path shows where the satellite is in the earth's shadow,  

DLR